TimeEST,TemperatureF,Dew PointF,Humidity,Sea Level PressureIn,VisibilityMPH,Wind Direction,Wind SpeedMPH,Gust SpeedMPH,PrecipitationIn,Events,Conditions,WindDirDegrees,DateUTC
12:14 AM,43.2,42.4,97,29.37,0.5,Calm,Calm,-,N/A,Rain,Light Rain,0,2013-01-30 05:14:00
12:35 AM,44.1,43.2,97,29.37,0.5,West,3.5,-,N/A,Rain,Light Rain,280,2013-01-30 05:35:00
12:54 AM,40.1,39.6,98,29.37,0.5,WNW,5.8,-,N/A,Rain,Light Rain,290,2013-01-30 05:54:00
1:14 AM,45.0,44.1,97,29.37,0.8,WNW,5.8,-,N/A,,Overcast,300,2013-01-30 06:14:00
1:34 AM,42.3,41.5,97,29.36,0.8,Calm,Calm,-,N/A,,Overcast,0,2013-01-30 06:34:00
1:54 AM,42.6,41.9,97,29.34,0.8,Calm,Calm,-,N/A,,Overcast,0,2013-01-30 06:54:00
2:15 AM,40.6,40.1,98,29.33,0.5,Calm,Calm,-,N/A,,Overcast,0,2013-01-30 07:15:00
2:34 AM,41.2,40.5,97,29.33,0.5,Calm,Calm,-,N/A,,Overcast,0,2013-01-30 07:34:00
2:54 AM,40.6,40.1,98,29.31,0.8,Calm,Calm,-,N/A,,Overcast,0,2013-01-30 07:54:00
3:14 AM,42.8,42.1,97,29.32,1.0,North,6.9,-,N/A,Rain,Light Rain,350,2013-01-30 08:14:00
3:34 AM,42.4,41.7,97,29.31,5.0,North,8.1,-,N/A,,Overcast,360,2013-01-30 08:34:00
3:54 AM,40.8,40.3,98,29.31,7.0,North,11.5,-,N/A,,Unknown,360,2013-01-30 08:54:00
4:14 AM,38.5,37.9,98,29.35,10.0,North,11.5,17.3,N/A,Rain,Light Rain,360,2013-01-30 09:14:00
4:34 AM,37.0,36.7,99,29.34,2.5,North,13.8,18.4,N/A,Snow,Light Snow,350,2013-01-30 09:34:00
4:54 AM,36.5,36.1,99,29.35,5.0,North,10.4,-,N/A,Snow,Light Snow,360,2013-01-30 09:54:00
5:14 AM,36.1,35.8,99,29.35,10.0,North,3.5,-,N/A,Snow,Light Snow,10,2013-01-30 10:14:00
5:34 AM,35.8,35.6,99,29.34,10.0,NNE,4.6,-,N/A,Snow,Light Snow,20,2013-01-30 10:34:00
5:54 AM,35.6,35.2,99,29.30,10.0,Calm,Calm,-,N/A,,Overcast,0,2013-01-30 10:54:00
6:14 AM,35.6,35.1,98,29.30,10.0,Calm,Calm,-,N/A,,Overcast,0,2013-01-30 11:14:00
6:34 AM,35.2,34.9,99,29.29,10.0,NNW,6.9,-,N/A,,Overcast,340,2013-01-30 11:34:00
6:54 AM,35.1,34.7,99,29.26,10.0,NNW,5.8,-,N/A,,Overcast,340,2013-01-30 11:54:00
7:14 AM,35.1,34.7,99,29.34,10.0,NW,10.4,-,N/A,,Overcast,320,2013-01-30 12:14:00
7:34 AM,34.9,34.3,98,29.33,5.0,North,10.4,-,N/A,,Overcast,350,2013-01-30 12:34:00
7:54 AM,34.7,33.8,97,29.31,3.0,North,9.2,-,N/A,,Overcast,360,2013-01-30 12:54:00
8:14 AM,34.5,33.8,97,29.30,2.0,North,4.6,-,N/A,,Overcast,350,2013-01-30 13:14:00
8:34 AM,34.3,33.8,98,29.30,1.5,North,5.8,-,N/A,,Overcast,350,2013-01-30 13:34:00
8:53 AM,34.3,33.8,98,29.30,2.0,NNW,3.5,-,N/A,,Overcast,340,2013-01-30 13:53:00
9:14 AM,34.3,33.8,98,29.31,3.0,Calm,Calm,-,N/A,,Overcast,0,2013-01-30 14:14:00
9:34 AM,34.3,33.8,98,29.31,1.5,Calm,Calm,-,N/A,,Overcast,0,2013-01-30 14:34:00
9:54 AM,34.5,34.0,98,29.29,3.0,Calm,Calm,-,N/A,,Overcast,0,2013-01-30 14:54:00
10:14 AM,34.7,34.2,98,29.28,1.5,Calm,Calm,-,N/A,,Overcast,0,2013-01-30 15:14:00
10:35 AM,34.9,34.3,98,29.27,2.0,East,3.5,-,N/A,Snow,Light Snow,80,2013-01-30 15:35:00
10:54 AM,35.1,34.5,98,29.26,3.0,Calm,Calm,-,N/A,,Overcast,0,2013-01-30 15:54:00
11:14 AM,35.1,34.5,98,29.27,2.5,ENE,4.6,-,N/A,,Overcast,60,2013-01-30 16:14:00
11:34 AM,35.1,34.3,97,29.25,3.0,East,3.5,-,N/A,,Overcast,80,2013-01-30 16:34:00
11:54 AM,35.1,34.2,97,29.24,2.0,Calm,Calm,-,N/A,,Overcast,0,2013-01-30 16:54:00
12:14 PM,35.1,34.3,97,29.20,2.5,ENE,5.8,-,N/A,,Overcast,60,2013-01-30 17:14:00
12:34 PM,35.1,34.5,98,29.19,2.5,ENE,4.6,-,N/A,,Overcast,70,2013-01-30 17:34:00
12:54 PM,35.2,34.7,98,29.19,1.5,East,3.5,-,N/A,Rain,Light Rain,100,2013-01-30 17:54:00
1:15 PM,35.6,34.7,97,29.17,3.0,East,3.5,-,N/A,,Light Drizzle,100,2013-01-30 18:15:00
1:34 PM,35.6,34.9,97,29.16,2.5,Calm,Calm,-,N/A,Rain,Rain,0,2013-01-30 18:34:00
1:54 PM,35.8,35.1,97,29.14,1.8,East,3.5,-,N/A,Rain,Light Rain,100,2013-01-30 18:54:00
2:14 PM,36.0,35.2,97,29.14,2.5,ESE,4.6,-,N/A,Rain,Light Rain,110,2013-01-30 19:14:00
2:34 PM,36.1,35.4,97,29.11,2.5,ESE,5.8,-,N/A,Rain,Rain,110,2013-01-30 19:34:00
2:54 PM,36.1,35.6,98,29.11,1.8,SE,4.6,-,N/A,Rain,Light Rain,130,2013-01-30 19:54:00
3:14 PM,36.5,35.8,97,29.10,4.0,SE,3.5,-,N/A,Rain,Light Rain,130,2013-01-30 20:14:00
3:34 PM,36.5,36.0,98,29.09,3.0,SSW,9.2,-,N/A,,Drizzle,200,2013-01-30 20:34:00
3:55 PM,36.9,36.5,99,29.09,7.0,South,3.5,-,N/A,,Overcast,170,2013-01-30 20:55:00
4:14 PM,36.5,36.0,98,29.07,4.0,NNW,3.5,-,N/A,,Overcast,330,2013-01-30 21:14:00
4:34 PM,36.9,36.3,98,29.07,2.0,NW,4.6,-,N/A,,Overcast,320,2013-01-30 21:34:00
4:54 PM,36.7,36.1,98,29.08,1.2,West,6.9,-,N/A,,Overcast,280,2013-01-30 21:54:00
5:14 PM,36.1,35.6,98,29.09,1.8,WNW,8.1,-,N/A,,Overcast,290,2013-01-30 22:14:00
5:34 PM,35.8,35.2,98,29.10,1.8,WNW,8.1,-,N/A,,Overcast,300,2013-01-30 22:34:00
5:54 PM,35.1,34.5,98,29.10,1.8,NW,15.0,-,N/A,,Overcast,310,2013-01-30 22:54:00
6:14 PM,33.8,32.7,96,29.11,7.0,NW,13.8,23.0,N/A,,Overcast,310,2013-01-30 23:14:00
6:34 PM,33.4,32.0,94,29.13,4.0,WNW,5.8,-,N/A,Snow,Light Snow,300,2013-01-30 23:34:00
7:14 PM,32.4,30.2,92,29.13,7.0,NW,19.6,24.2,N/A,Snow,Light Snow,320,2013-01-31 00:14:00
7:34 PM,32.0,30.2,93,29.11,4.0,NW,11.5,-,N/A,Snow,Light Snow,320,2013-01-31 00:34:00
7:54 PM,32.0,29.7,91,29.14,5.0,NW,16.1,19.6,N/A,Snow,Light Snow,310,2013-01-31 00:54:00
8:14 PM,31.5,28.6,89,29.16,7.0,NW,16.1,20.7,N/A,,Overcast,310,2013-01-31 01:14:00
8:34 PM,31.1,28.6,90,29.17,3.0,WNW,13.8,18.4,N/A,Snow,Light Snow,300,2013-01-31 01:34:00
8:54 PM,30.2,27.3,89,29.18,5.0,NW,23.0,27.6,N/A,Snow,Light Snow,310,2013-01-31 01:54:00
9:14 PM,29.3,25.5,86,29.18,10.0,NW,17.3,26.5,N/A,,Overcast,320,2013-01-31 02:14:00
9:34 PM,28.8,25.5,88,29.18,4.0,WNW,21.9,29.9,N/A,Snow,Light Snow,300,2013-01-31 02:34:00
9:54 PM,28.4,24.8,86,29.19,7.0,WNW,15.0,25.3,N/A,Snow,Light Snow,300,2013-01-31 02:54:00
10:14 PM,27.5,24.1,87,29.19,2.5,NW,18.4,26.5,N/A,Snow,Light Snow,320,2013-01-31 03:14:00
10:35 PM,27.1,23.7,87,29.21,1.0,WNW,19.6,29.9,N/A,Snow,Light Snow,300,2013-01-31 03:35:00
10:54 PM,26.1,22.5,86,29.22,1.2,NW,18.4,29.9,N/A,Snow,Light Snow,310,2013-01-31 03:54:00
11:14 PM,25.5,22.1,87,29.24,1.2,WNW,19.6,23.0,N/A,Snow,Light Snow,300,2013-01-31 04:14:00
11:35 PM,24.8,21.6,87,29.25,2.0,WNW,17.3,25.3,N/A,Snow,Light Snow,300,2013-01-31 04:35:00
11:54 PM,24.6,20.8,86,29.27,3.0,WNW,17.3,25.3,N/A,Snow,Light Snow,300,2013-01-31 04:54:00